Location: Newark
(45.2862°N, 9.8850°E)
Time: 11:23:27
(UTC+00:00)

N. Korean satellite - Pass Details

Date: 14 December 2019
Orbit: 454 x 508 km, 97.2° (Epoch: 17 January)

Event Time Altitude Azimuth Distance (km) Brightness Sun altitude
Rises 04:51:52 0° 18° (NNE) 2,533 10.3 -20.2°
Reaches altitude 10° 04:54:02 10° 26° (NNE) 1,640 9.4 -19.8°
Maximum altitude 04:57:23 41° 98° (E) 684 7.8 -19.2°
Drops below altitude 10° 05:00:40 10° 171° (S) 1,603 9.5 -18.7°
Sets 05:02:45 0° 178° (S) 2,465 10.4 -18.3°
